Location: Broadmoor
(37.6867°N, 122.4828°W)
Time: 05:32:14
(UTC+00:00)

Meteor 1-16 Rocket - Pass Details

Date: 03 August 2024
Orbit: 789 x 906 km, 81.2° (Epoch: 14 September)

Event Time Altitude Azimuth Distance (km) Brightness Sun altitude
Rises 12:44:18 0° 185° (S) 3,511 7.1 -6.5°
Reaches altitude 10° 12:46:46 10° 185° (S) 2,567 6.4 -6.1°
Maximum altitude 12:52:38 86° 97° (E) 895 4.4 -5.0°
Drops below altitude 10° 12:58:25 10° 10° (N) 2,524 7.2 -4.0°
Sets 13:00:49 0° 10° (N) 3,448 7.9 -3.6°
